This demonstration page uses our WeatherBlox Daily Observations layout. Learn more.

Left ArrowRight Arrow

Hourly Observations for May 20, 2020

Temp ( °F °C ) Dew Point ( °F °C ) Humidity (%) Winds ( mph kmh ) Pressure ( in mb ) Visibility ( mi km ) Precip ( " mm )
12:53 am 00:53 Cloudy 57 13.9 53 11.7 87 87 E 9 15 30.01 1016 10 16.0934 N/A
1:53 am 01:53 Cloudy 56 13.3 52 11.1 87 87 ENE 9 15 30.01 1016 10 16.0934 N/A
2:53 am 02:53 Cloudy 55 12.8 51 10.6 87 87 E 12 19 30.01 1016 10 16.0934 N/A
3:53 am 03:53 Cloudy 54 12.2 50 10 87 87 E 12 19 30.01 1016 10 16.0934 N/A
4:53 am 04:53 Cloudy with Light Rain 54 12.2 50 10 87 87 E 14 22 30.02 1017 10 16.0934 0.001 0.001
5:53 am 05:53 Cloudy 52 11.1 49 9.4 89 89 E 12 19 30.04 1017 10 16.0934 0.01 0.254
6:53 am 06:53 Cloudy 51 10.6 48 8.9 89 89 ENE 12 19 30.06 1018 10 16.0934 N/A
7:01 am 07:01 Cloudy with Light Rain 51 10.6 48 8.9 89 89 E 12 19 30.07 1018 10 16.0934 0.001 0.001
7:11 am 07:11 Cloudy 51 10.6 48 8.9 89 89 E 14 22 30.07 1018 10 16.0934 0.001 0.001
7:53 am 07:53 Cloudy 51 10.6 48 8.9 89 89 E 12 19 30.07 1018 10 16.0934 0.001 0.001
8:29 am 08:29 Cloudy 52 11.1 48 8.9 86 86 E 13 20 30.09 1019 10 16.0934 N/A
8:51 am 08:51 Cloudy 52 11 48 9 88 88 E 16 26 30.09 1019 10 16.0934 N/A
8:53 am 08:53 Cloudy 52 11.1 48 8.9 86 86 E 14 22 30.08 1019 10 16.0934 N/A
9:53 am 09:53 Cloudy 52 11.1 48 8.9 86 86 E 14 22 30.1 1019 10 16.0934 N/A
10:53 am 10:53 Cloudy 54 12.2 48 8.9 80 80 E 15 24 30.11 1020 10 16.0934 N/A
11:53 am 11:53 Cloudy 54 12.2 48 8.9 80 80 ENE 15 24 30.12 1020 10 16.0934 N/A
12:53 pm 12:53 Cloudy 55 12.8 49 9.4 80 80 E 10 17 30.11 1020 10 16.0934 N/A
1:53 pm 13:53 Cloudy 56 13.3 49 9.4 77 77 ENE 14 22 30.11 1020 10 16.0934 N/A
2:53 pm 14:53 Cloudy 57 13.9 49 9.4 74 74 E 12 19 30.1 1019 10 16.0934 N/A
3:53 pm 15:53 Cloudy 57 13.9 50 10 78 78 E 16 26 30.09 1019 10 16.0934 N/A
4:53 pm 16:53 Cloudy 57 13.9 50 10 78 78 E 15 24 30.1 1019 10 16.0934 N/A
5:53 pm 17:53 Cloudy 57 13.9 51 10.6 81 81 E 12 19 30.1 1019 10 16.0934 N/A
6:53 pm 18:53 Cloudy 58 14.4 50 10 75 75 E 16 26 30.1 1019 10 16.0934 N/A
7:34 pm 19:34 Mostly Cloudy 57 13.9 49 9.4 74 74 E 17 28 30.1 1019 10 16.0934 N/A
7:53 pm 19:53 Mostly Cloudy 56 13.3 49 9.4 77 77 E 15 24 30.11 1020 10 16.0934 N/A
8:00 pm 20:00 Mostly Cloudy 56 13.3 49 9.4 77 77 E 10 17 30.11 1020 10 16.0934 N/A
8:42 pm 20:42 Partly Cloudy 55 12.8 49 9.4 80 80 E 12 19 30.11 1020 10 16.0934 N/A
8:53 pm 20:53 Mostly Clear 55 12.8 49 9.4 80 80 E 10 17 30.12 1020 10 16.0934 N/A
9:53 pm 21:53 Mostly Clear 53 11.7 49 9.4 86 86 E 9 15 30.12 1020 10 16.0934 N/A
10:53 pm 22:53 Cloudy 54 12.2 50 10 87 87 E 8 13 30.13 1020 10 16.0934 N/A
11:53 pm 23:53 Cloudy 54 12.2 51 10.6 90 90 ENE 8 13 30.13 1020 10 16.0934 N/A

Powered by AerisWeather